Tegel Arpt/Berlin, Germany

9:39 PM CET on December 03, 2016 (GMT +0100)
Tegel

Weather History for EDDT - May, 2013

Change the Weather History Date:

Friday, May 17, 2013

  Actual Average Record
Temperature  
Mean Temperature 73 °F -  
Max Temperature 83 °F 66 °F 87 °F (2000)
Min Temperature 63 °F 48 °F 37 °F (2012)
Cooling Degree Days 8    
Growing Degree Days 23 (Base 50)    
Moisture  
Dew Point 53 °F    
Average Humidity 47    
Maximum Humidity 65    
Minimum Humidity 23    
Precipitation  
Precipitation 0.04 in - - ()
Sea Level Pressure  
Sea Level Pressure 29.51 in    
Wind  
Wind Speed 10 mph ()    
Max Wind Speed 16 mph    
Max Gust Speed 26 mph    
Visibility 11.2 miles    
Events Rain    
Averages and records for this station are not official NWS values.
T = Trace of Precipitation, MM = Missing Value Source: Averaged Metar Reports

Daily Weather History Graph

Daily Weather History Graph

Search for Another Location

Airport or City:

Trip Planner

Search our weather history database for the weather conditions in past years. The results will help you decide how hot, cold, wet, or windy it might be!

Date:

Astronomy

May. 17, 2013 Rise Set
Actual Time 5:07 AM CEST 8:59 PM CEST
Civil Twilight 4:23 AM CEST 9:43 PM CEST
Nautical Twilight 3:22 AM CEST 10:45 PM CEST
Astronomical Twilight 1:22 AM CEST 12:30 AM CEST
Moon 11:44 AM CEST (5/17) 1:24 AM CEST (5/17)
Length of Visible Light 17h 20m
Length of Day
15h 52m
Waxing Crescent, 42% of the Moon is Illuminated
May 17
Waxing Crescent
May 18
First Quarter
May 25
Full
May 31
Last Quarter
Jun 8
New

Hourly Weather History & Observations

Time (CEST) Temp. Heat Index Dew Point Humidity Pressure Visibility Wind Dir Wind Speed Gust Speed Precip Events Conditions
12:00 AM 71 °F - 50 °F 36% 29.50 in 22 mi ESE 11.2 mph - -   Partly Cloudy
12:20 AM 69.8 °F - 50.0 °F 49% 29.50 in - ESE 11.5 mph - N/A   Clear
12:50 AM 69.8 °F - 50.0 °F 49% 29.50 in - ESE 12.7 mph - N/A   Clear
1:00 AM 70 °F - 50 °F 37% 29.50 in 22 mi ESE 11.2 mph - -   Mostly Cloudy
1:20 AM 69.8 °F - 50.0 °F 49% 29.50 in - ESE 11.5 mph - N/A   Clear
1:50 AM 69.8 °F - 50.0 °F 49% 29.50 in - ESE 12.7 mph - N/A   Clear
2:00 AM 70 °F - 49 °F 37% 29.49 in 22 mi ESE 13.4 mph - -   Mostly Cloudy
2:20 AM 69.8 °F - 50.0 °F 49% 29.50 in - ESE 12.7 mph - N/A   Clear
2:50 AM 69.8 °F - 50.0 °F 49% 29.50 in - ESE 12.7 mph - N/A   Clear
3:00 AM 69 °F - 50 °F 40% 29.50 in 22 mi ESE 11.2 mph - -   Mostly Cloudy
3:20 AM 68.0 °F - 50.0 °F 52% 29.50 in - East 12.7 mph - N/A   Clear
3:50 AM 68.0 °F - 50.0 °F 52% 29.50 in - East 10.4 mph - N/A   Clear
4:00 AM 67 °F - 50 °F 44% 29.50 in 22 mi East 8.9 mph - -   Scattered Clouds
4:20 AM 66.2 °F - 50.0 °F 56% 29.47 in - East 10.4 mph - N/A   Clear
4:50 AM 66.2 °F - 50.0 °F 56% 29.47 in - East 9.2 mph - N/A   Clear
5:00 AM 66 °F - 51 °F 47% 29.50 in 19 mi East 6.7 mph - -   Scattered Clouds
5:20 AM 66.2 °F - 50.0 °F 56% 29.50 in - East 9.2 mph - N/A   Clear
5:50 AM 64.4 °F - 51.8 °F 64% 29.50 in - East 8.1 mph - N/A   Clear
6:00 AM 64 °F - 51 °F 53% 29.50 in 22 mi ENE 6.7 mph - -   Scattered Clouds
6:20 AM 64.4 °F - 51.8 °F 64% 29.50 in - ENE 9.2 mph - N/A   Clear
6:50 AM 66.2 °F - 51.8 °F 60% 29.50 in - ENE 9.2 mph - N/A   Clear
7:00 AM 65 °F - 52 °F 53% 29.51 in 19 mi East 6.7 mph - -   Scattered Clouds
7:20 AM 66.2 °F - 51.8 °F 60% 29.50 in - East 11.5 mph - N/A   Clear
7:50 AM 68.0 °F - 53.6 °F 60% 29.50 in - ESE 11.5 mph - N/A   Clear
8:00 AM 68 °F - 53 °F 48% 29.52 in 19 mi ESE 11.2 mph - -   Scattered Clouds
8:20 AM 69.8 °F - 53.6 °F 56% 29.50 in - ESE 11.5 mph - N/A   Clear
8:50 AM 69.8 °F - 53.6 °F 56% 29.50 in - East 12.7 mph - N/A   Clear
9:00 AM 70 °F - 54 °F 46% 29.52 in 19 mi ESE 8.9 mph - -   Clear
9:20 AM 69.8 °F - 53.6 °F 56% 29.50 in - East 12.7 mph - N/A   Clear
9:50 AM 71.6 °F - 53.6 °F 53% 29.50 in 6.2 mi ESE 12.7 mph - N/A   Scattered Clouds
10:00 AM 72 °F - 53 °F 40% 29.51 in 22 mi SE 11.2 mph - -   Scattered Clouds
10:20 AM 73.4 °F - 51.8 °F 47% 29.50 in 6.2 mi SE 10.4 mph - N/A   Scattered Clouds
10:50 AM 75.2 °F - 51.8 °F 44% 29.50 in 6.2 mi SE 10.4 mph - N/A   Partly Cloudy
11:00 AM 76 °F - 53 °F 33% 29.51 in 22 mi SE 13.4 mph - -   Scattered Clouds
11:20 AM 77.0 °F - 53.6 °F 44% 29.50 in 6.2 mi ESE 11.5 mph - N/A   Scattered Clouds
11:50 AM 77.0 °F - 53.6 °F 44% 29.50 in 6.2 mi East 16.1 mph - N/A   Scattered Clouds
12:00 PM 77 °F - 54 °F 35% 29.52 in 22 mi ESE 13.4 mph - -   Partly Cloudy
12:20 PM 77.0 °F - 55.4 °F 47% 29.50 in - ESE 15.0 mph - N/A   Clear
12:50 PM 78.8 °F - 55.4 °F 44% 29.50 in - ESE 13.8 mph - N/A   Clear
1:00 PM 79 °F - 54 °F 32% 29.51 in 22 mi East 15.7 mph - -   Partly Cloudy
1:20 PM 78.8 °F - 53.6 °F 42% 29.50 in - ESE 15.0 mph - N/A   Clear
1:50 PM 80.6 °F 80.3 °F 53.6 °F 39% 29.50 in 6.2 mi ESE 11.5 mph - N/A   Scattered Clouds
2:00 PM 80 °F - 54 °F 30% 29.51 in 22 mi SSE 13.4 mph - -   Partly Cloudy
2:20 PM 78.8 °F - 53.6 °F 42% 29.50 in 6.2 mi ESE 16.1 mph - N/A   Mostly Cloudy
2:50 PM 80.6 °F - 51.8 °F 37% 29.50 in - East 16.1 mph - N/A   Clear
3:00 PM 80 °F - 53 °F 28% 29.51 in 22 mi East 11.2 mph - -   Partly Cloudy
3:20 PM 82.4 °F 81.4 °F 53.6 °F 37% 29.50 in - SSE 16.1 mph - N/A   Clear
3:50 PM 82.4 °F - 50.0 °F 32% 29.50 in - SE 12.7 mph - N/A   Clear
4:00 PM 82 °F - 50 °F 23% 29.51 in 25 mi SE 13.4 mph - -   Partly Cloudy
4:20 PM 80.6 °F - 51.8 °F 37% 29.50 in - ESE 11.5 mph - N/A   Clear
4:50 PM 80.6 °F 80.3 °F 53.6 °F 39% 29.50 in - ESE 16.1 mph - N/A   Clear
5:00 PM 81 °F - 54 °F 28% 29.50 in 25 mi SE 13.4 mph - -   Partly Cloudy
5:20 PM 78.8 °F - 53.6 °F 42% 29.50 in - SE 13.8 mph 26.5 mph N/A   Clear
5:50 PM 80.6 °F - 51.8 °F 37% 29.50 in - ESE 15.0 mph - N/A   Clear
6:00 PM 80 °F - 53 °F 28% 29.50 in 25 mi ESE 11.2 mph - -   Mostly Cloudy
6:20 PM 80.6 °F 80.3 °F 53.6 °F 39% 29.50 in 6.2 mi ESE 12.7 mph 24.2 mph N/A   Scattered Clouds
6:50 PM 73.4 °F - 60.8 °F 65% 29.50 in 6.2 mi East 11.5 mph - N/A   Mostly Cloudy
7:00 PM 74 °F - 61 °F 54% 29.52 in 22 mi ESE 6.7 mph - - Rain Light Rain Showers
7:20 PM 77.0 °F - 53.6 °F 44% 29.53 in 6.2 mi SE 12.7 mph - N/A   Mostly Cloudy
7:50 PM 75.2 °F - 55.4 °F 50% 29.53 in 6.2 mi ESE 11.5 mph - N/A   Mostly Cloudy
8:00 PM 75 °F - 56 °F 41% 29.53 in 22 mi ESE 6.7 mph - -   Partly Cloudy
8:20 PM 75.2 °F - 57.2 °F 53% 29.53 in - ENE 9.2 mph - N/A   Clear
8:50 PM 73.4 °F - 57.2 °F 57% 29.53 in - ENE 6.9 mph - N/A   Clear
9:00 PM 73 °F - 58 °F 49% 29.54 in 19 mi ENE 4.5 mph - -   Partly Cloudy
9:20 PM 71.6 °F - 57.2 °F 60% 29.53 in - ENE 10.4 mph - N/A   Clear
9:50 PM 71.6 °F - 59.0 °F 64% 29.53 in - ENE 9.2 mph - N/A   Clear
10:00 PM 71 °F - 58 °F 55% 29.55 in 19 mi East 6.7 mph - -   Partly Cloudy
10:20 PM 69.8 °F - 57.2 °F 64% 29.56 in - East 5.8 mph - N/A   Clear
10:50 PM 71.6 °F - 57.2 °F 60% 29.56 in - East 5.8 mph - N/A   Clear
11:00 PM 71 °F - 57 °F 52% 29.56 in 19 mi East 4.5 mph - -   Scattered Clouds
11:20 PM 69.8 °F - 57.2 °F 64% 29.56 in - ENE 3.5 mph - N/A   Clear
11:50 PM 69.8 °F - 57.2 °F 64% 29.56 in - ENE 5.8 mph - N/A   Clear